EZY98YT EGKK-LFPG

Flight info

Callsign EZY98YT
Flight time N/A
Altitude 23000
Route SFD M605 HARDY UM605 BIBAX
Aircraft A320/M-SDE3FGHIRWY/LB1

Departure

Time 2026-05-04 13:09
Airport London Gatwick Airport (EGKK)

Arrival

Time N/A
Airport Charles de Gaulle International Airport (LFPG)
Time Latitude Longitude Altitude Speed Heading
2026-05-04 12:50 51.15591 -0.17621 204 ft 0 kts 347°
2026-05-04 13:00 51.15581 -0.17617 204 ft 4 kts 345°
2026-05-04 13:00 51.15556 -0.17603 216 ft 4 kts 330°
2026-05-04 13:00 51.15540 -0.17585 210 ft 0 kts 308°
2026-05-04 13:02 51.15540 -0.17587 210 ft 0 kts 299°
2026-05-04 13:02 51.15538 -0.17592 205 ft 0 kts 254°
2026-05-04 13:02 51.15535 -0.17594 205 ft 2 kts 228°
2026-05-04 13:03 51.15532 -0.17602 214 ft 1 kts 239°
2026-05-04 13:03 51.15525 -0.17626 216 ft 0 kts 251°
2026-05-04 13:03 51.15521 -0.17642 206 ft 5 kts 251°
2026-05-04 13:04 51.15511 -0.17707 208 ft 6 kts 257°
2026-05-04 13:04 51.15504 -0.17765 204 ft 5 kts 258°
2026-05-04 13:04 51.15492 -0.17853 204 ft 11 kts 258°
2026-05-04 13:04 51.15475 -0.17982 212 ft 11 kts 258°
2026-05-04 13:05 51.15460 -0.18092 213 ft 10 kts 258°
2026-05-04 13:05 51.15416 -0.18150 204 ft 10 kts 189°
2026-05-04 13:05 51.15332 -0.18126 205 ft 16 kts 167°
2026-05-04 13:05 51.15221 -0.18088 209 ft 15 kts 167°
2026-05-04 13:06 51.15134 -0.18105 207 ft 12 kts 229°
2026-05-04 13:06 51.15103 -0.18261 202 ft 20 kts 257°
2026-05-04 13:06 51.15067 -0.18510 207 ft 26 kts 258°
2026-05-04 13:06 51.15024 -0.18833 206 ft 33 kts 258°
2026-05-04 13:07 51.14975 -0.19195 208 ft 33 kts 258°
2026-05-04 13:07 51.14927 -0.19552 214 ft 33 kts 257°
2026-05-04 13:07 51.14880 -0.19881 215 ft 30 kts 257°
2026-05-04 13:07 51.14839 -0.20176 212 ft 28 kts 256°
2026-05-04 13:08 51.14796 -0.20481 210 ft 28 kts 257°
2026-05-04 13:08 51.14684 -0.20694 213 ft 27 kts 190°
2026-05-04 13:08 51.14604 -0.20562 210 ft 20 kts 76°
2026-05-04 13:08 51.14657 -0.20170 213 ft 68 kts 77°
2026-05-04 13:09 51.14807 -0.19074 210 ft 129 kts 78°
2026-05-04 13:09 51.15027 -0.17456 390 ft 159 kts 76°
2026-05-04 13:09 51.15257 -0.15773 1129 ft 158 kts 76°
2026-05-04 13:09 51.15515 -0.13959 1587 ft 175 kts 77°
2026-05-04 13:10 51.15783 -0.11955 1916 ft 196 kts 77°
2026-05-04 13:10 51.16079 -0.09809 2249 ft 219 kts 77°
2026-05-04 13:10 51.16151 -0.07324 2962 ft 227 kts 107°
2026-05-04 13:10 51.15270 -0.05258 3594 ft 242 kts 143°
2026-05-04 13:11 51.13651 -0.04106 4131 ft 261 kts 165°
2026-05-04 13:11 51.11876 -0.03558 4976 ft 266 kts 172°
2026-05-04 13:11 51.10026 -0.03167 5724 ft 271 kts 173°
2026-05-04 13:11 51.08164 -0.02681 5949 ft 271 kts 169°
2026-05-04 13:12 51.06377 -0.02028 5999 ft 270 kts 166°
2026-05-04 13:12 51.04564 -0.01249 6006 ft 270 kts 164°
2026-05-04 13:12 51.02760 -0.00414 6007 ft 271 kts 164°
2026-05-04 13:12 51.00954 0.00450 5993 ft 271 kts 164°
2026-05-04 13:13 50.99137 0.01324 6134 ft 275 kts 164°
2026-05-04 13:13 50.97305 0.02201 7048 ft 276 kts 164°
2026-05-04 13:13 50.95463 0.03077 7950 ft 277 kts 164°
2026-05-04 13:13 50.93603 0.03956 8822 ft 280 kts 164°
2026-05-04 13:14 50.91726 0.04841 9683 ft 283 kts 164°
2026-05-04 13:14 50.89827 0.05734 10478 ft 286 kts 164°
2026-05-04 13:14 50.87909 0.06636 11236 ft 289 kts 164°
2026-05-04 13:14 50.85969 0.07546 12027 ft 292 kts 164°
2026-05-04 13:15 50.84018 0.08461 12814 ft 294 kts 164°
2026-05-04 13:15 50.82042 0.09385 13558 ft 298 kts 164°
2026-05-04 13:15 50.80042 0.10319 14255 ft 301 kts 164°
2026-05-04 13:15 50.78025 0.11261 14936 ft 303 kts 164°